This is the latest recevied weather packets stored in our database for station/object VA3PC-13. If no packets are shown the sender has not sent any weather packets the latest 10 day(s).
| Time | Temp. | Humidity | Pressure | Rain* | Wind** | Luminosity | Snow |
|---|---|---|---|---|---|---|---|
| 1778041517 | 3.89° C | 65% | 978.9 hPa | 0 mm | - | 0 W/m² | - |
| 1778031917 | 6.67° C | 57% | 978.1 hPa | 0 mm | - | 0 W/m² | - |
| 1778028337 | 8.33° C | 51% | 977.4 hPa | 0 mm | - | 1 W/m² | - |
| 1778027720 | 8.33° C | 49% | 977.2 hPa | 0 mm | - | 2 W/m² | - |
| 1778027118 | 8.89° C | 48% | 977.1 hPa | 0 mm | - | 6 W/m² | - |
| 1778022318 | 10° C | 40% | 976.3 hPa | 0 mm | - | 57 W/m² | - |
| 1778018718 | 10.56° C | 39% | 975.9 hPa | 0 mm | - | 123 W/m² | - |
| 1778018141 | 11.11° C | 40% | 975.6 hPa | 0 mm | - | 141 W/m² | - |
| 1778016920 | 11.11° C | 39% | 975.2 hPa | 0 mm | - | 155 W/m² | - |
| 1778011519 | 11.67° C | 38% | 973.9 hPa | 0 mm | - | 609 W/m² | - |
| 1778010918 | 11.67° C | 38% | 973.7 hPa | 0 mm | - | 655 W/m² | - |
| 1778007319 | 12.22° C | 40% | 972.9 hPa | 0 mm | - | 802 W/m² | - |
| 1778006117 | 11.67° C | 41% | 972.7 hPa | 0 mm | - | 739 W/m² | - |
| 1778003117 | 12.22° C | 40% | 972.1 hPa | 0 mm | - | 891 W/m² | - |
| 1778000718 | 12.22° C | 40% | 971.8 hPa | 0 mm | - | 909 W/m² | - |
| 1777996519 | 10° C | 48% | 972.5 hPa | 0 mm | - | 220 W/m² | - |
| 1777995362 | 10° C | 51% | 971.7 hPa | 0 mm | - | 230 W/m² | - |
| 1777992916 | 10° C | 60% | 971.3 hPa | 0 mm | - | 299 W/m² | - |
| 1777992319 | 10° C | 60% | 971.1 hPa | 0 mm | - | 302 W/m² | - |
| 1777988721 | 8.33° C | 72% | 971.4 hPa | 0 mm | - | 106 W/m² | - |
| 1777986918 | 8.89° C | 72% | 970.9 hPa | 0 mm | - | 107 W/m² | - |
| 1777982118 | 8.33° C | 78% | 969.9 hPa | 0 mm | - | 31 W/m² | - |
| 1777979718 | 8.33° C | 81% | 969.5 hPa | 0 mm | - | 32 W/m² | - |
| 1777977921 | 8.33° C | 85% | 969.1 hPa | 0 mm | - | 10 W/m² | - |
| 1777970119 | 10° C | 76% | 967.9 hPa | 0 mm | - | 0 W/m² | - |
* Rain latest hour (hover to see other rain measurements)
** Current wind speed in m/s (hover to see current wind gust speed)